Regional Weather Roundup
Issued by NWS

Home | Current Version | Previous Version | Graphics & Text | Print | Product List | Glossary On
Versions: 1 2 3 4 5 6 7 8 9 10 11 12 13 14 15 16 17 18 19 20 21 22 23 24 25 26 27 28 29 30 31 32 33 34 35 36 37 38 39 40 41 42 43 44 45 46 47 48 49 50
000
ASUS45 KSLC 251110
RWRUT

UTAH REGIONAL WEATHER ROUNDUP
NATIONAL WEATHER SERVICE SALT LAKE CITY UT
500 AM MDT FRI JUL 25 2014

UTZ001>011-023>025-251200-

NORTHERN UTAH

CITY           SKY/WX    TMP DP  RH WIND       PRES   REMARKS
HILL AFB       CLEAR     66  38  35 E12       30.05R
LOGAN          CLEAR     56  42  59 CALM      30.08S
OGDEN          CLEAR     63  37  38 W5        30.02R
PROVO AIRPORT  CLEAR     61  45  55 E6        30.05S
SALT LAKE CITY PTCLDY    67  42  40 CALM      30.02R
VERNAL         PTCLDY    64  51  62 MISG      30.09S
WENDOVER       CLEAR     68  37  32 CALM      30.04R
HEBER CITY     CLEAR     52  43  71 CALM      30.14R
WEST JORDAN    CLEAR     66  46  48 CALM      30.05S

$$

UTZ012>022-026-027-251200-

SOUTHERN UTAH

CITY           SKY/WX    TMP DP  RH WIND       PRES   REMARKS
BRYCE CANYON   MOCLDY    56  44  64 CALM      30.32S
CEDAR CITY     PTCLDY    72  47  40 SW9       30.13S
MILFORD        CLEAR     75  48  38 S15       30.06S
MOAB/CYNLANDS  CLEAR     79  48  33 E8        30.03S
PRICE          MOCLDY    74  48  39 NE6       30.14R
ST GEORGE      SUNNY     82  48  30 S5        29.95R
KANAB          MOCLDY    72  48  43 NW8       30.14F

$$

REGIONAL REPORTS     COLORADO/ARIZONA

CITY           SKY/WX    TMP DP  RH WIND       PRES   REMARKS
CRAIG, CO      MOCLDY    54  54 100 NE7       30.21F
GRAND JUNCTION TSTM      73  53  49 NE14      30.12S
RIFLE          PTCLDY    63  50  62 CALM      30.19R
MONTROSE       PTCLDY    60  51  72 E3        30.22S
CORTEZ         PTCLDY    69  52  54 NE7       30.22R
PAGE, AZ       CLOUDY    83  48  29 CALM      30.07R
GRAND CANYON   CLOUDY    60  55  83 CALM      30.27S
KINGMAN        PTCLDY    81  52  36 SE13      29.99R
FLAGSTAFF      CLEAR     50  47  89 CALM      30.31F

$$

REGIONAL REPORTS    NEVADA/IDAHO/WYOMING

CITY           SKY/WX    TMP DP  RH WIND       PRES   REMARKS
LAS VEGAS, NV  PTCLDY    92  49  22 S12       29.79S
ELY            CLEAR     51  24  34 S8        30.16R
ELKO           PTCLDY    55  34  45 N5        30.11R
POCATELLO, ID  CLEAR     56  24  29 SW10      30.13R
BURLEY         PTCLDY    48  36  63 S5        30.10R
EVANSTON, WY   CLEAR     55  36  48 E5        30.22S
ROCK SPRINGS   PTCLDY    60  26  27 CALM      30.18F

$$


USA.gov is the U.S. government's official web portal to all federal, state and local government web resources and services.